Winchester, VA

7:01 PM EST on December 03, 2016 (GMT -0500)
Winchester Regional

Weather History for KOKV - September, 2013

Change the Weather History Date:

Thursday, September 5, 2013

  Actual Average Record
Temperature  
Mean Temperature 68 °F -  
Max Temperature 80 °F 79 °F 91 °F (2012)
Min Temperature 57 °F 58 °F 35 °F (1998)
Cooling Degree Days 4    
Growing Degree Days 18 (Base 50)    
Moisture  
Dew Point 56 °F    
Average Humidity 67    
Maximum Humidity 100    
Minimum Humidity 44    
Precipitation  
Precipitation 0.00 in - - ()
Sea Level Pressure  
Sea Level Pressure 30.09 in    
Wind  
Wind Speed 5 mph (WNW)    
Max Wind Speed 17 mph    
Max Gust Speed 25 mph    
Visibility 10 miles    
Events      
Averages and records for this station are not official NWS values.
T = Trace of Precipitation, MM = Missing Value Source: NWS Daily Summary

Daily Weather History Graph

Daily Weather History Graph

Search for Another Location

Airport or City:

Trip Planner

Search our weather history database for the weather conditions in past years. The results will help you decide how hot, cold, wet, or windy it might be!

Date:

Astronomy

Sep. 05, 2013 Rise Set
Actual Time 6:45 AM EDT 7:36 PM EDT
Civil Twilight 6:17 AM EDT 8:03 PM EDT
Nautical Twilight 5:45 AM EDT 8:35 PM EDT
Astronomical Twilight 5:12 AM EDT 9:09 PM EDT
Moon 6:54 AM EDT (9/5) 7:27 PM EDT (9/5)
Length of Visible Light 13h 45m
Length of Day
12h 51m
New Moon, 0% of the Moon is Illuminated
Sep 5
New Moon
Sep 12
First Quarter
Sep 19
Full
Sep 26
Last Quarter
Oct 4
New

Hourly Weather History & Observations

Time (EDT) Temp. Heat Index Dew Point Humidity Pressure Visibility Wind Dir Wind Speed Gust Speed Precip Events Conditions
12:15 AM 64.4 °F - 55.4 °F 73% 30.07 in 10.0 mi West 4.6 mph - N/A   Scattered Clouds
12:35 AM 62.6 °F - 55.4 °F 77% 30.08 in 10.0 mi SSW 3.5 mph - N/A   Unknown
12:55 AM 62.6 °F - 55.4 °F 77% 30.08 in 10.0 mi Calm Calm - N/A   Unknown
1:15 AM 60.8 °F - 55.4 °F 82% 30.08 in 10.0 mi Calm Calm - N/A   Unknown
1:35 AM 59.0 °F - 55.4 °F 88% 30.08 in 10.0 mi Calm Calm - N/A   Unknown
1:55 AM 59.0 °F - 55.4 °F 88% 30.08 in 10.0 mi Calm Calm - N/A   Unknown
2:15 AM 59.0 °F - 53.6 °F 82% 30.08 in 10.0 mi South 3.5 mph - N/A   Mostly Cloudy
2:35 AM 60.8 °F - 55.4 °F 82% 30.08 in 10.0 mi SW 3.5 mph - N/A   Clear
2:55 AM 59.0 °F - 55.4 °F 88% 30.07 in 10.0 mi South 3.5 mph - N/A   Scattered Clouds
3:15 AM 59.0 °F - 59.0 °F 100% 30.07 in 10.0 mi SSW 5.8 mph - N/A   Clear
3:35 AM 59.0 °F - 59.0 °F 100% 30.07 in 10.0 mi SW 3.5 mph - N/A   Clear
3:55 AM 59.0 °F - 59.0 °F 100% 30.07 in 10.0 mi SW 5.8 mph - N/A   Clear
4:15 AM 60.8 °F - 59.0 °F 94% 30.07 in 10.0 mi SW 6.9 mph - N/A   Clear
4:35 AM 59.0 °F - 57.2 °F 94% 30.07 in 10.0 mi Calm Calm - N/A   Clear
4:55 AM 59.0 °F - 57.2 °F 94% 30.07 in 10.0 mi Calm Calm - N/A   Clear
5:15 AM 59.0 °F - 55.4 °F 88% 30.07 in 10.0 mi SW 4.6 mph - N/A   Clear
5:35 AM 59.0 °F - 55.4 °F 88% 30.07 in 10.0 mi SW 4.6 mph - N/A   Clear
5:55 AM 59.0 °F - 55.4 °F 88% 30.07 in 10.0 mi SSW 6.9 mph - N/A   Clear
6:15 AM 59.0 °F - 55.4 °F 88% 30.07 in 10.0 mi SW 5.8 mph - N/A   Clear
6:35 AM 59.0 °F - 55.4 °F 88% 30.08 in 10.0 mi SW 3.5 mph - N/A   Clear
6:55 AM 57.2 °F - 55.4 °F 94% 30.08 in 10.0 mi SW 3.5 mph - N/A   Clear
7:15 AM 59.0 °F - 55.4 °F 88% 30.08 in 10.0 mi Calm Calm - N/A   Clear
7:35 AM 59.0 °F - 55.4 °F 88% 30.08 in 10.0 mi WSW 3.5 mph - N/A   Clear
7:55 AM 60.8 °F - 55.4 °F 82% 30.08 in 10.0 mi SW 5.8 mph - N/A   Scattered Clouds
8:15 AM 64.4 °F - 55.4 °F 73% 30.08 in 10.0 mi WSW 6.9 mph - N/A   Unknown
8:35 AM 66.2 °F - 55.4 °F 68% 30.08 in 10.0 mi SW 6.9 mph - N/A   Unknown
8:55 AM 68.0 °F - 55.4 °F 64% 30.08 in 10.0 mi SW 6.9 mph - N/A   Scattered Clouds
9:15 AM 68.0 °F - 57.2 °F 68% 30.08 in 10.0 mi SW 4.6 mph - N/A   Scattered Clouds
9:35 AM 69.8 °F - 59.0 °F 68% 30.09 in 10.0 mi Calm Calm - N/A   Scattered Clouds
9:55 AM 71.6 °F - 59.0 °F 64% 30.09 in 10.0 mi South 5.8 mph - N/A   Scattered Clouds
10:15 AM 71.6 °F - 59.0 °F 64% 30.09 in 10.0 mi SW 6.9 mph - N/A   Scattered Clouds
10:35 AM 77.0 °F - 59.0 °F 54% 30.09 in 10.0 mi WNW 9.2 mph - N/A   Clear
10:55 AM 77.0 °F - 59.0 °F 54% 30.09 in 10.0 mi NW 17.3 mph 21.9 mph N/A   Clear
11:15 AM 78.8 °F - 60.8 °F 54% 30.09 in 10.0 mi WNW 16.1 mph 21.9 mph N/A   Clear
11:35 AM 78.8 °F - 60.8 °F 54% 30.09 in 10.0 mi NW 15.0 mph 25.3 mph N/A   Scattered Clouds
11:55 AM 80.6 °F 81.5 °F 60.8 °F 51% 30.09 in 10.0 mi WNW 13.8 mph 25.3 mph N/A   Scattered Clouds
12:15 PM 80.6 °F 81.5 °F 60.8 °F 51% 30.09 in 10.0 mi WNW 12.7 mph 19.6 mph N/A   Scattered Clouds
12:35 PM 80.6 °F 81.5 °F 60.8 °F 51% 30.09 in 10.0 mi NW 11.5 mph 18.4 mph N/A   Mostly Cloudy
12:55 PM 80.6 °F 81.5 °F 60.8 °F 51% 30.08 in 10.0 mi WNW 11.5 mph 19.6 mph N/A   Mostly Cloudy
1:15 PM 80.6 °F 81.5 °F 60.8 °F 51% 30.08 in 10.0 mi West 15.0 mph 23.0 mph N/A   Scattered Clouds
1:35 PM 80.6 °F 81.5 °F 60.8 °F 51% 30.08 in 10.0 mi NW 11.5 mph 21.9 mph N/A   Scattered Clouds
1:55 PM 78.8 °F - 60.8 °F 54% 30.07 in 10.0 mi WNW 12.7 mph 19.6 mph N/A   Mostly Cloudy
2:15 PM 78.8 °F - 59.0 °F 51% 30.07 in 10.0 mi WNW 12.7 mph 20.7 mph N/A   Mostly Cloudy
2:35 PM 80.6 °F 81.5 °F 60.8 °F 51% 30.07 in 10.0 mi WNW 11.5 mph 17.3 mph N/A   Scattered Clouds
2:55 PM 80.6 °F 81.5 °F 60.8 °F 51% 30.06 in 10.0 mi NW 10.4 mph 16.1 mph N/A   Scattered Clouds
3:15 PM 77.0 °F - 60.8 °F 57% 30.06 in 10.0 mi NW 8.1 mph 16.1 mph N/A   Mostly Cloudy
3:35 PM 77.0 °F - 59.0 °F 54% 30.06 in 10.0 mi NW 13.8 mph - N/A   Mostly Cloudy
3:55 PM 78.8 °F - 59.0 °F 51% 30.06 in 10.0 mi NW 12.7 mph 21.9 mph N/A   Scattered Clouds
4:15 PM 78.8 °F - 55.4 °F 44% 30.06 in 10.0 mi NW 11.5 mph 21.9 mph N/A   Scattered Clouds
4:35 PM 80.6 °F 80.8 °F 57.2 °F 45% 30.06 in 10.0 mi NNW 9.2 mph 24.2 mph N/A   Mostly Cloudy
4:55 PM 78.8 °F - 55.4 °F 44% 30.06 in 10.0 mi NW 11.5 mph 17.3 mph N/A   Mostly Cloudy
5:15 PM 78.8 °F - 55.4 °F 44% 30.07 in 10.0 mi NNW 10.4 mph 17.3 mph N/A   Scattered Clouds
5:35 PM 78.8 °F - 55.4 °F 44% 30.07 in 10.0 mi NNW 10.4 mph 18.4 mph N/A   Clear
5:55 PM 78.8 °F - 55.4 °F 44% 30.08 in 10.0 mi NNW 10.4 mph - N/A   Scattered Clouds
6:15 PM 78.8 °F - 55.4 °F 44% 30.08 in 10.0 mi NW 10.4 mph - N/A   Scattered Clouds
6:35 PM 77.0 °F - 55.4 °F 47% 30.08 in 10.0 mi NNW 6.9 mph - N/A   Mostly Cloudy
6:55 PM 75.2 °F - 53.6 °F 47% 30.09 in 10.0 mi NNW 8.1 mph - N/A   Mostly Cloudy
7:15 PM 73.4 °F - 53.6 °F 50% 30.09 in 10.0 mi NW 8.1 mph - N/A   Scattered Clouds
7:35 PM 71.6 °F - 53.6 °F 53% 30.10 in 10.0 mi NNW 5.8 mph - N/A   Clear
7:55 PM 71.6 °F - 53.6 °F 53% 30.10 in 10.0 mi NNW 4.6 mph - N/A   Scattered Clouds
8:15 PM 69.8 °F - 53.6 °F 56% 30.11 in 10.0 mi NNW 4.6 mph - N/A   Scattered Clouds
8:35 PM 68.0 °F - 51.8 °F 56% 30.12 in 10.0 mi NNW 4.6 mph - N/A   Clear
8:55 PM 68.0 °F - 51.8 °F 56% 30.13 in 10.0 mi North 3.5 mph - N/A   Scattered Clouds
9:15 PM 66.2 °F - 51.8 °F 60% 30.13 in 10.0 mi Calm Calm - N/A   Scattered Clouds
9:35 PM 64.4 °F - 51.8 °F 64% 30.15 in 10.0 mi Calm Calm - N/A   Clear
9:55 PM 62.6 °F - 51.8 °F 68% 30.15 in 10.0 mi Calm Calm - N/A   Scattered Clouds
10:15 PM 60.8 °F - 51.8 °F 72% 30.15 in 10.0 mi Calm Calm - N/A   Scattered Clouds
10:35 PM 60.8 °F - 50.0 °F 68% 30.15 in 10.0 mi North 4.6 mph - N/A   Mostly Cloudy
10:55 PM 60.8 °F - 50.0 °F 68% 30.16 in 10.0 mi NNW 3.5 mph - N/A   Scattered Clouds
11:15 PM 59.0 °F - 50.0 °F 72% 30.16 in 10.0 mi Calm Calm - N/A   Clear
11:35 PM 60.8 °F - 50.0 °F 68% 30.16 in 10.0 mi NNW 3.5 mph - N/A   Clear
11:55 PM 59.0 °F - 50.0 °F 72% 30.17 in 10.0 mi WNW 4.6 mph - N/A   Scattered Clouds